Tracking 19817 objects as of 19-Aug-2019
HD Live streaming from Space Station
objects crossing your sky now

DELTA 4 DEB


DELTA 4 DEB is no longer on orbit


NORAD ID: 40598
Int'l Code: 2015-013D
Perigee: N/A
Apogee: N/A
Inclination: N/A
Period: N/A
Semi major axis: N/A
RCS: N/A
Launch date: March 25, 2015
Source: United States (US)
Launch site: AIR FORCE EASTERN TEST RANGE (AFETR)
Decay date: 2015-04-18

Note: This is SATELLITE DEBRIS
aabbcc
Your satellite tracking list
Your tracking list is empty




NASA's NSSDC Master Catalog

Two Line Element Set (TLE):
1 40598U 15013D   15099.91274227 -.00000364  60215-6  00000+0 0  9997
2 40598 052.1656 343.0669 3824457 094.6014 001.5859 07.93464677   978
Source of the keplerian elements: AFSPC